User: anonymous   Login
Location: Newark
(34.6283°N, 36.0776°E)
Time: 17:57:21
(UTC+00:00)
Language:

Altair - Orbit

View from above orbital plane
View from above orbital plane
View from above satellite
View from above satellite

Ground track
Ground track

The orbit data is extracted from the following two-line orbital elements,

1    50U 60009B   19287.11960789 -.00000093  00000-0 -80641-4 0  9995
2    50  47.2307 168.9094 0113835 308.7728  50.2936 12.20109228640476
Epoch (UTC): 14 October 2019 02:52:14
Eccentricity: 0.0113835
inclination: 47.2307°
perigee height: 1501 km
apogee height: 1683 km
right ascension of ascending node: 168.9094°
argument of perigee: 308.7728°
revolutions per day: 12.20109228
mean anomaly at epoch: 50.2936°
orbit number at epoch: 64047

The dashed part of the orbit path shows where the satellite is in the earth's shadow,  

DLR